This demonstration page uses our WeatherBlox Daily Observations layout. Learn more.

Left ArrowRight Arrow

40.92945, -100.16068

Hourly Observations for October 30, 2016

Temp ( °F °C ) Dew Point ( °F °C ) Humidity (%) Winds ( mph kmh ) Pressure ( in mb ) Visibility ( mi km ) Precip ( " mm )
12:15 am 00:15 Mostly Cloudy 47 8.1 41 5.2 82 82 NNE 12 19 30.24 1024 10 16 N/A
12:35 am 00:35 Cloudy 48 8.7 42 5.5 81 81 NNE 7 11 30.27 1025 10 16 N/A
12:55 am 00:55 Cloudy 48 9 42 5.5 79 79 NNE 8 13 30.24 1024 10 16 N/A
1:15 am 01:15 Cloudy 48 8.8 42 5.4 79 79 N 3 6 30.27 1025 10 16 N/A
1:35 am 01:35 Cloudy 47 8.5 42 5.3 81 81 N N/A 30.27 1025 10 16 N/A
1:55 am 01:55 Cloudy 48 9 42 5.7 80 80 N 8 13 30.24 1024 10 16 N/A
2:15 am 02:15 Cloudy 48 8.7 42 5.6 81 81 N 8 13 30.27 1025 10 16 N/A
2:35 am 02:35 Cloudy 47 8.5 42 5.5 82 82 N 6 9 30.27 1025 10 16 N/A
2:55 am 02:55 Cloudy 47 8.5 42 5.6 82 82 N 5 7 30.27 1025 10 16 N/A
3:15 am 03:15 Cloudy 48 8.7 43 5.9 83 83 NNW 9 15 30.27 1025 10 16 N/A
3:35 am 03:35 Cloudy 48 9 43 6 82 82 N 9 15 30.24 1024 10 16 N/A
3:55 am 03:55 Cloudy 48 8.7 42 5.7 82 82 N 6 9 30.27 1025 10 16 N/A
4:15 am 04:15 Cloudy 47 8.6 42 5.7 82 82 N 8 13 30.27 1025 10 16 N/A
4:35 am 04:35 Cloudy 47 8.5 42 5.5 82 82 N 8 13 30.30 1026 10 16 N/A
4:55 am 04:55 Cloudy 47 8.3 42 5.5 83 83 NNW 7 11 30.30 1026 10 16 N/A
5:15 am 05:15 Cloudy 47 8.2 42 5.3 82 82 N 8 13 30.30 1026 10 16 N/A
5:35 am 05:35 Cloudy 47 8.2 42 5.3 82 82 N 8 13 30.30 1026 10 16 N/A
5:55 am 05:55 Mostly Cloudy 46 7.7 41 4.9 83 83 N 6 9 30.30 1026 10 16 N/A
6:15 am 06:15 Partly Cloudy 44 6.6 40 4.5 87 87 N 3 6 30.30 1026 10 16 N/A
6:35 am 06:35 Mostly Cloudy 43 6.1 39 4.1 87 87 NNE 3 6 30.30 1026 10 16 N/A
6:55 am 06:55 Cloudy 44 6.8 41 4.8 87 87 NNE 3 6 30.30 1026 10 16 N/A
7:15 am 07:15 Cloudy 45 7 41 4.8 86 86 N N/A 30.30 1026 10 16 N/A
7:35 am 07:35 Cloudy 45 7 41 5 87 87 NNE 5 7 30.30 1026 10 16 N/A
7:55 am 07:55 Cloudy 45 7.3 41 5.1 86 86 ENE 5 7 30.30 1026 10 16 N/A
8:15 am 08:15 Cloudy 45 7.3 41 5.2 87 87 ENE 5 7 30.30 1026 10 16 N/A
8:35 am 08:35 Cloudy 45 7.2 41 5 86 86 ESE 5 7 30.30 1026 10 16 N/A
8:55 am 08:55 Cloudy 44 6.9 40 4.6 85 85 E 3 6 30.30 1026 10 16 N/A
9:15 am 09:15 Cloudy 45 7 40 4.6 85 85 E 3 6 30.30 1026 10 16 N/A
9:35 am 09:35 Cloudy 45 7 40 4.6 85 85 ESE 5 7 30.30 1026 10 16 N/A
9:55 am 09:55 Cloudy 45 7.2 40 4.7 84 84 ESE 5 7 30.33 1027 10 16 N/A
10:15 am 10:15 Cloudy 46 7.5 41 4.9 84 84 ESE 5 7 30.30 1026 10 16 N/A
10:35 am 10:35 Cloudy 46 7.6 41 5 84 84 N N/A 30.30 1026 10 16 N/A
10:55 am 10:55 Cloudy 46 7.7 41 4.9 83 83 S 5 7 30.30 1026 10 16 N/A
11:15 am 11:15 Cloudy 46 8 41 5 82 82 SSW 5 7 30.33 1027 10 16 N/A
11:35 am 11:35 Cloudy 47 8.1 41 5 81 81 S 5 7 30.30 1026 10 16 N/A
11:55 am 11:55 Cloudy 47 8.6 41 5 78 78 SSE 6 9 30.30 1026 10 16 N/A
12:15 pm 12:15 Mostly Cloudy 49 9.5 42 5.3 75 75 SE 5 7 30.27 1025 10 16 N/A
12:35 pm 12:35 Partly Cloudy 51 10.4 42 5.3 71 71 SE 9 15 30.24 1024 10 16 N/A
12:55 pm 12:55 Sunny 52 11 42 5.4 69 69 SE 9 15 30.24 1024 10 16 N/A
1:15 pm 13:15 Sunny 53 11.5 42 5.4 66 66 SE 9 15 30.21 1023 10 16 N/A
1:35 pm 13:35 Sunny 54 12.4 42 5.6 63 63 S 7 11 30.18 1022 10 16 N/A
1:55 pm 13:55 Sunny 55 12.5 42 5.5 63 63 ESE 6 9 30.15 1021 10 16 N/A
2:15 pm 14:15 Sunny 56 13.5 42 5.5 59 59 SSE 9 15 30.15 1021 10 16 N/A
2:35 pm 14:35 Sunny 57 14.1 42 5.6 57 57 S 12 19 30.15 1021 10 16 N/A
2:55 pm 14:55 Sunny 58 14.7 42 5.5 54 54 SSE 12 19 30.09 1019 10 16 N/A
3:15 pm 15:15 Sunny 58 14.4 41 5.2 54 54 SE 10 17 30.09 1019 10 16 N/A
3:35 pm 15:35 Sunny 58 14.7 42 5.3 54 54 SSE 12 19 30.06 1018 10 16 N/A
3:55 pm 15:55 Sunny 59 15.2 42 5.5 53 53 SSE 10 17 30.06 1018 10 16 N/A
4:15 pm 16:15 Sunny 60 15.7 42 5.5 51 51 SSE 13 20 30.06 1018 10 16 N/A
4:35 pm 16:35 Sunny 61 15.9 42 5.5 50 50 S 14 22 30.06 1018 10 16 N/A
4:55 pm 16:55 Sunny 61 16 42 5.4 50 50 S 16 26 30.06 1018 10 16 N/A
5:15 pm 17:15 Sunny 60 15.5 42 5.3 51 51 SSE 12 19 30.03 1017 10 16 N/A
5:35 pm 17:35 Sunny 60 15.5 42 5.4 51 51 SSE 14 22 30.03 1017 10 16 N/A
5:55 pm 17:55 Sunny 58 14.5 42 5.3 54 54 S 12 19 30.03 1017 10 16 N/A
6:15 pm 18:15 Sunny 56 13.3 42 5.3 59 59 S 10 17 30.06 1018 10 16 N/A
6:35 pm 18:35 Sunny 54 12.1 42 5.3 63 63 S 8 13 30.06 1018 10 16 N/A
6:55 pm 18:55 Clear 51 10.7 41 5 68 68 SSE 7 11 30.06 1018 10 16 N/A
7:15 pm 19:15 Clear 50 10.1 41 5 71 71 SSE 9 15 30.09 1019 10 16 N/A
7:35 pm 19:35 Clear 51 10.3 41 5 70 70 SSE 7 11 30.09 1019 10 16 N/A
7:55 pm 19:55 Clear 51 10.4 41 5.1 70 70 SSE 8 13 30.09 1019 10 16 N/A
8:15 pm 20:15 Clear 51 10.7 41 5.2 69 69 SSE 9 15 30.06 1018 10 16 N/A
8:35 pm 20:35 Clear 52 11 42 5.7 70 70 SSE 9 15 30.03 1017 10 16 N/A
8:55 pm 20:55 Clear 51 10.7 42 5.7 71 71 SSE 9 15 30.03 1017 10 16 N/A
9:15 pm 21:15 Clear 51 10.5 42 5.8 73 73 SSE 10 17 30.03 1017 10 16 N/A
9:35 pm 21:35 Clear 50 10 43 5.9 76 76 SSE 9 15 30.06 1018 10 16 N/A
9:55 pm 21:55 Clear 50 10 43 6 76 76 SE 9 15 30.06 1018 10 16 N/A
10:15 pm 22:15 Clear 50 10.1 43 6.2 77 77 SSE 9 15 30.06 1018 10 16 N/A
10:35 pm 22:35 Clear 51 10.4 44 6.5 77 77 S 10 17 30.03 1017 10 16 N/A
10:55 pm 22:55 Clear 51 10.5 44 6.5 76 76 SSE 9 15 30.00 1016 10 16 N/A
11:15 pm 23:15 Clear 51 10.3 44 6.5 78 78 SSE 8 13 30.00 1016 10 16 N/A
11:35 pm 23:35 Clear 50 10.2 44 6.5 78 78 SSE 10 17 30.00 1016 10 16 N/A
11:55 pm 23:55 Clear 50 10 44 6.4 79 79 SSE 10 17 29.97 1015 10 16 N/A

Powered by AerisWeather